Weather History for Keene, NH

Change the Weather History Date:

Tuesday, April 29, 2014

  Actual Average Record
Temperature  
Mean Temperature 44 °F -  
Max Temperature 48 °F 63 °F 84 °F (1974)
Min Temperature 39 °F 36 °F 16 °F (1934)
Degree Days  
Heating Degree Days 22    
Moisture  
Dew Point 31 °F    
Average Humidity 61    
Maximum Humidity 76    
Minimum Humidity 46    
Precipitation  
Precipitation 0.01 in - - ()
Sea Level Pressure  
Sea Level Pressure 30.41 in    
Wind  
Wind Speed 5 mph (East)    
Max Wind Speed 13 mph    
Max Gust Speed 21 mph    
Visibility 10 miles    
Events      
Averages and records for this station are not official NWS values.
T = Trace of Precipitation, MM = Missing Value Source: NWS Daily Summary

Daily Weather History Graph

Daily Weather History Graph

Search for Another Location

Airport:

Trip Planner

Search our weather history database for the weather conditions in past years. The results will help you decide how hot, cold, wet, or windy it might be!

Date:

Astronomy

Apr. 29, 2014 Rise Set
Actual Time 5:45 AM EDT 7:47 PM EDT
Civil Twilight 5:15 AM EDT 8:18 PM EDT
Nautical Twilight 4:37 AM EDT 8:56 PM EDT
Astronomical Twilight 3:56 AM EDT 9:37 PM EDT
Moon 6:02 AM EDT (4/29) 8:25 PM EDT (4/29)
Length of Visible Light 15h 03m
Length of Day
14h 01m
New Moon, 0% of the Moon is Illuminated
Apr 29
New Moon
May 6
First Quarter
May 14
Full
May 21
Last Quarter
May 28
New

Hourly Weather History & Observations

Time (EDT) Temp. Windchill Dew Point Humidity Pressure Visibility Wind Dir Wind Speed Gust Speed Precip Events Conditions
12:15 AM 46.4 °F 42.4 °F 37.4 °F 71% 30.23 in 10.0 mi ENE 8.1 mph - N/A   Overcast
12:35 AM 46.4 °F 44.3 °F 35.6 °F 66% 30.24 in 10.0 mi NE 4.6 mph - N/A   Overcast
12:55 AM 46.4 °F 45.2 °F 37.4 °F 71% 30.24 in 10.0 mi NNE 3.5 mph - N/A   Overcast
1:15 AM 46.4 °F 45.2 °F 37.4 °F 71% 30.23 in 10.0 mi North 3.5 mph - N/A   Overcast
1:35 AM 46.4 °F - 35.6 °F 66% 30.24 in 10.0 mi Calm Calm - N/A   Overcast
1:55 AM 46.4 °F 43.5 °F 35.6 °F 66% 30.24 in 10.0 mi ENE 5.8 mph - N/A   Overcast
2:15 AM 44.6 °F 41.4 °F 37.4 °F 76% 30.24 in 5.0 mi ENE 5.8 mph - N/A   Overcast
2:35 AM 44.6 °F 42.2 °F 35.6 °F 71% 30.25 in 10.0 mi ENE 4.6 mph - N/A   Mostly Cloudy
2:55 AM 44.6 °F 43.1 °F 35.6 °F 71% 30.26 in 10.0 mi ENE 3.5 mph - N/A   Overcast
3:15 AM 44.6 °F 39.7 °F 35.6 °F 71% 30.28 in 10.0 mi ENE 9.2 mph - N/A   Overcast
3:35 AM 42.8 °F 38.6 °F 35.6 °F 76% 30.28 in 10.0 mi ENE 6.9 mph - N/A   Overcast
3:55 AM 42.8 °F 39.3 °F 33.8 °F 70% 30.29 in 10.0 mi ENE 5.8 mph - N/A   Overcast
4:15 AM 42.8 °F 41.1 °F 33.8 °F 70% 30.30 in 10.0 mi SSE 3.5 mph - N/A   Overcast
4:35 AM 42.8 °F 41.1 °F 33.8 °F 70% 30.31 in 10.0 mi East 3.5 mph - N/A   Overcast
4:55 AM 42.8 °F 41.1 °F 33.8 °F 70% 30.32 in 10.0 mi East 3.5 mph - N/A   Overcast
5:15 AM 42.8 °F 41.1 °F 33.8 °F 70% 30.32 in 10.0 mi East 3.5 mph - N/A   Overcast
5:35 AM 42.8 °F 40.1 °F 33.8 °F 70% 30.33 in 10.0 mi East 4.6 mph - N/A   Overcast
5:55 AM 42.8 °F 41.1 °F 33.8 °F 70% 30.32 in 10.0 mi NE 3.5 mph - N/A   Overcast
6:15 AM 42.8 °F 39.3 °F 32.0 °F 66% 30.33 in 10.0 mi East 5.8 mph - N/A   Overcast
6:35 AM 42.8 °F 40.1 °F 30.2 °F 61% 30.35 in 10.0 mi East 4.6 mph - N/A   Overcast
6:55 AM 42.8 °F - 30.2 °F 61% 30.37 in 10.0 mi Calm Calm - N/A   Overcast
7:15 AM 42.8 °F 41.1 °F 32.0 °F 66% 30.37 in 10.0 mi ESE 3.5 mph - N/A   Overcast
7:35 AM 42.8 °F - 30.2 °F 61% 30.38 in 10.0 mi Calm Calm - N/A   Overcast
7:55 AM 42.8 °F 39.3 °F 30.2 °F 61% 30.38 in 10.0 mi ENE 5.8 mph - N/A   Overcast
8:15 AM 41.0 °F 37.1 °F 30.2 °F 65% 30.38 in 10.0 mi ENE 5.8 mph - N/A   Overcast
8:35 AM 42.8 °F 36.6 °F 28.4 °F 57% 30.39 in 10.0 mi ENE 11.5 mph - N/A   Overcast
8:55 AM 42.8 °F 39.3 °F 28.4 °F 57% 30.41 in 10.0 mi East 5.8 mph 16.1 mph N/A   Overcast
9:15 AM 41.0 °F 36.4 °F 28.4 °F 61% 30.43 in 10.0 mi ENE 6.9 mph - N/A   Overcast
9:35 AM 41.0 °F 38.0 °F 28.4 °F 61% 30.43 in 10.0 mi East 4.6 mph - N/A   Overcast
9:55 AM 42.8 °F 38.6 °F 28.4 °F 57% 30.43 in 10.0 mi ENE 6.9 mph - N/A   Overcast
10:15 AM 42.8 °F 37.5 °F 28.4 °F 57% 30.44 in 10.0 mi ENE 9.2 mph 16.1 mph N/A   Overcast
10:35 AM 42.8 °F - 28.4 °F 57% 30.44 in 10.0 mi Calm Calm - N/A   Overcast
10:55 AM 42.8 °F 37.5 °F 30.2 °F 61% 30.43 in 10.0 mi ENE 9.2 mph - N/A   Overcast
11:15 AM 42.8 °F 36.2 °F 30.2 °F 61% 30.43 in 10.0 mi ENE 12.7 mph 17.3 mph N/A   Overcast
11:35 AM 44.6 °F 40.2 °F 28.4 °F 53% 30.43 in 10.0 mi East 8.1 mph - N/A   Overcast
11:55 AM 44.6 °F 42.2 °F 30.2 °F 57% 30.43 in 10.0 mi ENE 4.6 mph - N/A   Overcast
12:15 PM 44.6 °F 40.2 °F 30.2 °F 57% 30.44 in 10.0 mi East 8.1 mph - N/A   Overcast
12:35 PM 44.6 °F 40.7 °F 28.4 °F 53% 30.45 in 10.0 mi East 6.9 mph - N/A   Overcast
12:55 PM 46.4 °F 43.5 °F 28.4 °F 50% 30.46 in 10.0 mi East 5.8 mph - N/A   Overcast
1:15 PM 46.4 °F 42.4 °F 28.4 °F 50% 30.46 in 10.0 mi South 8.1 mph - N/A   Overcast
1:35 PM 46.4 °F 42.4 °F 28.4 °F 50% 30.45 in 10.0 mi East 8.1 mph - N/A   Overcast
1:55 PM 46.4 °F 42.9 °F 28.4 °F 50% 30.45 in 10.0 mi East 6.9 mph - N/A   Overcast
2:15 PM 48.2 °F - 28.4 °F 46% 30.45 in 10.0 mi South 9.2 mph - N/A   Mostly Cloudy
2:35 PM 48.2 °F - 30.2 °F 50% 30.45 in 10.0 mi East 5.8 mph 16.1 mph N/A   Overcast
2:55 PM 48.2 °F - 30.2 °F 50% 30.45 in 10.0 mi East 3.5 mph - N/A   Mostly Cloudy
3:15 PM 48.2 °F - 28.4 °F 46% 30.45 in 10.0 mi SE 6.9 mph 16.1 mph N/A   Mostly Cloudy
3:35 PM 46.4 °F 42.9 °F 28.4 °F 50% 30.45 in 10.0 mi ESE 6.9 mph - N/A   Overcast
3:55 PM 46.4 °F 43.5 °F 30.2 °F 53% 30.46 in 10.0 mi SE 5.8 mph 19.6 mph N/A   Overcast
4:15 PM 46.4 °F 41.9 °F 30.2 °F 53% 30.46 in 10.0 mi South 9.2 mph 20.7 mph N/A   Overcast
4:35 PM 46.4 °F 42.4 °F 30.2 °F 53% 30.46 in 10.0 mi SSE 8.1 mph - N/A   Overcast
5:15 PM 44.6 °F 40.7 °F 28.4 °F 53% 30.48 in 10.0 mi SE 6.9 mph - N/A   Overcast
5:35 PM 44.6 °F 41.4 °F 28.4 °F 53% 30.47 in 10.0 mi SSE 5.8 mph - N/A   Overcast
5:55 PM 44.6 °F 40.7 °F 30.2 °F 57% 30.47 in 10.0 mi SE 6.9 mph - N/A   Overcast
6:15 PM 42.8 °F 40.1 °F 28.4 °F 57% 30.47 in 10.0 mi ENE 4.6 mph - N/A   Overcast
6:35 PM 42.8 °F 39.3 °F 28.4 °F 57% 30.47 in 10.0 mi NE 5.8 mph - N/A   Overcast
6:55 PM 42.8 °F 38.6 °F 28.4 °F 57% 30.47 in 10.0 mi ENE 6.9 mph - N/A   Mostly Cloudy
7:15 PM 42.8 °F 38.0 °F 28.4 °F 57% 30.48 in 10.0 mi ENE 8.1 mph - N/A   Scattered Clouds
7:35 PM 42.8 °F 41.1 °F 28.4 °F 57% 30.48 in 10.0 mi East 3.5 mph - N/A   Scattered Clouds
7:55 PM 42.8 °F 40.1 °F 28.4 °F 57% 30.49 in 10.0 mi SW 4.6 mph - N/A   Mostly Cloudy
8:15 PM 42.8 °F - 28.4 °F 57% 30.49 in 10.0 mi Calm Calm - N/A   Scattered Clouds
8:35 PM 42.8 °F - 28.4 °F 57% 30.50 in 10.0 mi Calm Calm - N/A   Scattered Clouds
8:55 PM 42.8 °F - 28.4 °F 57% 30.50 in 10.0 mi Calm Calm - N/A   Scattered Clouds
9:15 PM 41.0 °F - 28.4 °F 61% 30.49 in 10.0 mi Calm Calm - N/A   Partly Cloudy
9:35 PM 41.0 °F - 28.4 °F 61% 30.49 in 10.0 mi Calm Calm - N/A   Partly Cloudy
9:55 PM 41.0 °F - 28.4 °F 61% 30.49 in 10.0 mi Calm Calm - N/A   Partly Cloudy
10:15 PM 39.2 °F 37.0 °F 30.2 °F 70% 30.50 in 10.0 mi WSW 3.5 mph - N/A   Scattered Clouds
10:35 PM 39.2 °F - 30.2 °F 70% 30.50 in 10.0 mi Calm Calm - 0.01 in   Mostly Cloudy
10:55 PM 39.2 °F 35.9 °F 30.2 °F 70% 30.50 in 10.0 mi South 4.6 mph - 0.01 in   Overcast
11:15 PM 39.2 °F - 30.2 °F 70% 30.50 in 10.0 mi Calm Calm - N/A   Overcast
11:35 PM 39.2 °F - 30.2 °F 70% 30.51 in 10.0 mi Calm Calm - N/A   Overcast
11:55 PM 39.2 °F 37.0 °F 30.2 °F 70% 30.51 in 10.0 mi SE 3.5 mph - N/A   Overcast